This demonstration page uses our WeatherBlox Daily Observations layout. Learn more.

Left ArrowRight Arrow

Hourly Observations for March 3, 2017

Temp ( °F °C ) Dew Point ( °F °C ) Humidity (%) Winds ( mph kmh ) Pressure ( in mb ) Visibility ( mi km ) Precip ( " mm )
12:52 am 00:52 Clear 36 2.2 20 -6.7 52 52 N 9 15 30.50 1033 10 16 0.00 0.00
1:52 am 01:52 Clear 34 1.1 19 -7.2 54 54 NE 7 11 30.50 1033 10 16 0.00 0.00
2:52 am 02:52 Clear 30 -1.1 19 -7.2 64 64 Calm 30.52 1033 10 16 0.00 0.00
3:52 am 03:52 Clear 29 -1.7 19 -7.2 66 66 Calm 30.53 1034 10 16 0.00 0.00
4:52 am 04:52 Clear 29 -1.7 19 -7.2 66 66 Calm 30.53 1034 10 16 0.00 0.00
5:52 am 05:52 Clear 27 -2.8 19 -7.2 72 72 Calm 30.56 1035 10 16 0.00 0.00
6:52 am 06:52 Sunny 30 -1.1 20 -6.7 66 66 ENE 9 15 30.57 1035 10 16 0.00 0.00
7:52 am 07:52 Sunny 34 1.1 23 -5 64 64 E 8 13 30.58 1036 10 16 0.00 0.00
8:52 am 08:52 Sunny 40 4.4 24 -4.4 53 53 E 9 15 30.58 1036 10 16 0.00 0.00
9:52 am 09:52 Sunny 45 7.2 21 -6.1 39 39 SE 10 17 30.59 1036 10 16 0.00 0.00
10:52 am 10:52 Sunny 48 8.9 20 -6.7 33 33 SE 12 19 30.58 1036 10 16 0.00 0.00
11:52 am 11:52 Sunny 51 10.6 22 -5.6 32 32 SSE 13 20 30.55 1035 10 16 0.00 0.00
12:52 pm 12:52 Sunny 53 11.7 23 -5 31 31 S 14 22 30.51 1033 10 16 0.00 0.00
1:52 pm 13:52 Sunny 56 13.3 23 -5 28 28 SE 16 26 30.47 1032 10 16 0.00 0.00
2:52 pm 14:52 Sunny 57 13.9 23 -5 27 27 SSE 16 26 30.43 1031 10 16 0.00 0.00
3:52 pm 15:52 Sunny 57 13.9 23 -5 27 27 SSE 16 26 30.41 1030 10 16 0.00 0.00
4:52 pm 16:52 Sunny 57 13.9 24 -4.4 28 28 SSE 21 33 30.38 1029 10 16 0.00 0.00
5:52 pm 17:52 Sunny 54 12.2 24 -4.4 31 31 SSE 15 24 30.38 1029 10 16 0.00 0.00
6:52 pm 18:52 Clear 50 10 25 -3.9 38 38 SSE 12 19 30.39 1029 10 16 0.00 0.00
7:52 pm 19:52 Clear 50 10 25 -3.9 38 38 SSE 14 22 30.37 1029 10 16 0.00 0.00
8:52 pm 20:52 Clear 49 9.4 26 -3.3 41 41 SSE 13 20 30.37 1029 10 16 0.00 0.00
9:52 pm 21:52 Clear 49 9.4 27 -2.8 43 43 S 17 28 30.37 1028 9 14 0.00 0.00
10:52 pm 22:52 Clear 48 8.9 27 -2.8 44 44 SSE 18 30 30.37 1028 10 16 0.00 0.00
11:52 pm 23:52 Clear 46 7.8 28 -2.2 50 50 SSE 17 28 30.35 1028 10 16 0.00 0.00

Powered by AerisWeather